Tracking 29747 objects as of 10-Oct-2024
HD Live streaming from Space Station
objects crossing your sky now

DELTA 1 DEB

Track DELTA 1 DEB now!
10-day predictions


NORAD ID: 21515
Int'l Code: 1975-052GL
Perigee: 1,066.7 km
Apogee: 1,483.8 km
Inclination: 99.7 °
Period: 110.9 minutes
Semi major axis: 7646 km
RCS: 0.0773 m2 (small)
Launch date: June 12, 1975
Source: United States (US)
Launch site: AIR FORCE WESTERN TEST RANGE (AFWTR)

Note: This is SATELLITE DEBRIS
Your satellite tracking list
Your tracking list is empty




NASA's NSSDC Master Catalog

Two Line Element Set (TLE):
1 21515U 75052GL  24283.55331953  .00001013  00000-0  30038-2 0  9997
2 21515  99.7442  27.8409 0272739 188.9709 294.6193 12.98475338582776
Source of the keplerian elements: AFSPC